Station YGNN6 - Niagara Coast Guard Station, NY Image indicating link to RSS feed of recent meteorological observations for station YGNN6


Conditions at YGNN6 as of
(3:00 pm EDT)
1900 GMT on 04/19/2024:
     

Click on the graph icon in the table below to see a time series plot of the last five days of that observation.

5-day plot - Wind Direction Wind Direction (WDIR): W ( 260 deg true )
5-day plot - Wind Speed Wind Speed (WSPD): 14.0 kts
5-day plot - Wind Gust Wind Gust (GST): 21.0 kts
5-day plot - Atmospheric Pressure Atmospheric Pressure (PRES):29.83 in
5-day plot - Pressure Tendency Pressure Tendency (PTDY):+0.04 in ( Rising )
5-day plot - Air Temperature Air Temperature (ATMP): 56.3 °F
5-day plot - Wind Speed at 10 Meters Wind Speed at 10 meters (WSPD10M): 13.6 kts
5-day plot - Wind Speed at 20 Meters Wind Speed at 20 meters (WSPD20M): 15.5 kts
5-day plot -  Wind Speed, Wind Gust and Atmospheric Pressure Combined plot of Wind Speed, Gust, and Air Pressure
Previous observations
TIME
(EDT)
5-day plot - Wind Direction
WDIR
 
5-day plot - Wind Speed
WSPD
kts
5-day plot - Wind Gust
GST
kts
5-day plot - Wave Height
WVHT
ft
5-day plot - Dominant Wave Period
DPD
sec
5-day plot - Average Wave Period
APD
sec
5-day plot - Mean Wave Direction
MWD
 
5-day plot - Atmospheric Pressure
PRES
in
5-day plot - Pressure Tendency
PTDY
in
5-day plot - Air Temperature
ATMP
°F
5-day plot - Water Temperature
WTMP
°F
5-day plot - Dew Point
DEWP
°F
5-day plot - Salinity
SAL
psu
5-day plot - Visibility
VIS
nmi
5-day plot - Tide (above MLLW)
TIDE
ft
2024-04-19 02:50 pm W 13.0 19.0----29.83- 56.1-----
2024-04-19 02:40 pm W 13.0 21.0----29.84- 56.3-----
2024-04-19 02:30 pm W 15.0 18.1----29.83- 55.8-----
2024-04-19 02:20 pmWSW 14.0 17.1----29.83- 56.1-----
2024-04-19 02:10 pm W 14.0 21.0----29.82- 55.2-----
2024-04-19 02:00 pm W 12.0 17.1----29.81+0.01 53.4-----
2024-04-19 01:50 pm W 12.0 18.1----29.82- 48.9-----
2024-04-19 01:40 pm W 12.0 19.0----29.81- 48.2-----
2024-04-19 01:30 pm W 11.1 15.0----29.81-------
2024-04-19 01:20 pm W 9.9 14.0----29.81-------
2024-04-19 01:10 pm W 13.0 18.1----29.80-------
2024-04-19 01:00 pm W 17.1 20.0----29.80+0.03------
2024-04-19 12:50 pm W 17.1 22.0----29.79-------
2024-04-19 12:40 pmSSW 11.1 22.9----29.78- 59.4-----
2024-04-19 12:30 pmSSW 7.0 8.9----29.78- 57.2-----
2024-04-19 12:20 pm S 2.9 7.0----29.79- 54.1-----
2024-04-19 12:10 pm SW 2.9 6.0----29.79- 51.6-----
2024-04-19 12:00 pm W 7.0 12.0----29.79-0.06 48.9-----
2024-04-19 11:50 am W 7.0 9.9----29.79- 48.9-----
2024-04-19 11:40 am W 5.1 9.9----29.79- 49.6-----
2024-04-19 11:30 am W 8.9 11.1----29.79- 47.7-----
2024-04-19 11:20 am W 8.0 8.9----29.79- 48.2-----
2024-04-19 11:10 amWNW 5.1 6.0----29.80- 48.2-----
2024-04-19 11:00 amWNW 5.1 7.0----29.80-0.07 49.3-----
2024-04-19 10:50 amESE 2.9 4.1----29.79- 51.8-----
2024-04-19 10:40 am S 1.0 4.1----29.79- 50.9-----
2024-04-19 10:30 amSSE 2.9 5.1----29.78- 50.5-----
2024-04-19 10:20 am SE 4.1 6.0----29.78- 50.5-----
2024-04-19 10:10 am SE 6.0 8.9----29.78- 49.8-----
2024-04-19 10:00 am SE 7.0 9.9----29.77-0.08 49.3-----
2024-04-19 09:50 am E 2.9 8.0----29.78- 49.1-----
2024-04-19 09:40 amESE 1.9 7.0----29.78- 48.6-----
2024-04-19 09:30 am NE 6.0 8.9----29.79- 48.0-----
2024-04-19 09:20 amNNW 1.0 5.1----29.80- 48.7-----
2024-04-19 09:10 am E 1.0 2.9----29.84- 48.6-----
2024-04-19 09:00 am SE 2.9 4.1----29.85-0.03 48.4-----
2024-04-19 08:50 am- 0.0 1.9----29.85- 48.4-----
2024-04-19 08:40 am- 0.0 4.1----29.85- 48.0-----
2024-04-19 08:30 amENE 4.1 7.0----29.85- 47.5-----
2024-04-19 08:20 am NE 5.1 6.0----29.85- 47.3-----
2024-04-19 08:10 amENE 1.0 4.1----29.87- 47.8-----
2024-04-19 08:00 am N 2.9 2.9----29.87-0.06 48.2-----
2024-04-19 07:50 amNNW 2.9 5.1----29.89- 47.8-----
2024-04-19 07:40 am SW 2.9 4.1----29.90- 48.9-----
2024-04-19 07:30 amSSW 1.9 4.1----29.88- 48.7-----
2024-04-19 07:20 amSSE 1.9 2.9----29.87- 48.7-----
2024-04-19 07:10 am E 1.9 2.9----29.86- 48.6-----
2024-04-19 07:00 am- 0.0 5.1----29.85-0.09 48.4-----
2024-04-19 06:50 amENE 1.9 7.0----29.84- 48.4-----
2024-04-19 06:40 amENE 1.9 8.9----29.85- 48.4-----
2024-04-19 06:30 amENE 1.9 5.1----29.86- 48.4-----
2024-04-19 06:20 amENE 4.1 8.9----29.86- 48.6-----
2024-04-19 06:10 amENE 6.0 8.0----29.87- 48.4-----
2024-04-19 06:00 am E 1.9 5.1----29.88-0.08 48.2-----
2024-04-19 05:50 amESE 1.9 6.0----29.89- 48.2-----
2024-04-19 05:40 amESE 2.9 8.0----29.90- 48.6-----
2024-04-19 05:30 am E 2.9 6.0----29.90- 48.4-----
2024-04-19 05:20 am E 1.9 5.1----29.91- 48.7-----
2024-04-19 05:10 amENE 4.1 6.0----29.91- 49.1-----
2024-04-19 05:00 amESE 1.0 6.0----29.93-0.06 48.9-----
2024-04-19 04:50 am E 4.1 7.0----29.92- 48.9-----
2024-04-19 04:40 am E 4.1 6.0----29.93- 48.9-----
2024-04-19 04:30 amESE 2.9 6.0----29.93- 48.6-----
2024-04-19 04:20 amESE 4.1 6.0----29.93- 47.3-----
2024-04-19 04:10 am SE 5.1 6.0----29.94- 47.7-----
2024-04-19 04:00 am SE 5.1 6.0----29.94-0.08 47.5-----
2024-04-19 03:50 am SE 5.1 6.0----29.95- 47.1-----
2024-04-19 03:40 am SE 6.0 6.0----29.95- 48.2-----
2024-04-19 03:30 amSSE 6.0 7.0----29.95- 48.2-----
2024-04-19 03:20 am SE 6.0 7.0----29.95- 48.0-----
2024-04-19 03:10 am SE 6.0 7.0----29.96- 48.2-----
2024-04-19 03:00 am SE 6.0 6.0----29.96-0.06 48.4-----
2024-04-19 02:50 am SE 5.1 6.0----29.97- 48.6-----
2024-04-19 02:40 am SE 4.1 6.0----29.97- 48.9-----
2024-04-19 02:30 amESE 4.1 7.0----29.97- 48.6-----
2024-04-19 02:20 amESE 5.1 5.1----29.98- 48.7-----
2024-04-19 02:10 am SE 4.1 5.1----29.99- 48.7-----
2024-04-19 02:00 am SE 5.1 5.1----29.99-0.06 47.7-----
2024-04-19 01:50 am SE 5.1 5.1----29.99- 47.1-----
2024-04-19 01:40 amESE 4.1 5.1----30.00- 47.1-----
2024-04-19 01:30 amESE 2.9 4.1----30.01- 47.1-----
2024-04-19 01:20 am SE 2.9 4.1----30.01- 47.5-----
2024-04-19 01:10 am SE 2.9 4.1----30.02- 47.7-----
2024-04-19 01:00 am SE 2.9 5.1----30.02-0.02 48.2-----
2024-04-19 12:50 amSSE 4.1 4.1----30.02- 48.4-----
2024-04-19 12:40 amSSE 4.1 4.1----30.02- 47.5-----
2024-04-19 12:30 am SE 4.1 4.1----30.02- 47.7-----
2024-04-19 12:20 am SE 4.1 5.1----30.02- 48.2-----
2024-04-19 12:10 am SE 4.1 4.1----30.02- 47.5-----
2024-04-19 12:00 am SE 2.9 5.1----30.02-0.01 47.5-----
2024-04-18 11:50 pmESE 2.9 4.1----30.03- 48.4-----
2024-04-18 11:40 pm SE 1.9 2.9----30.04- 48.7-----
2024-04-18 11:30 pm SE 1.9 4.1----30.04- 48.6-----
2024-04-18 11:20 pm SE 2.9 4.1----30.03- 48.6-----
2024-04-18 11:10 pm E 1.0 4.1----30.03- 48.2-----
2024-04-18 11:00 pmESE 2.9 4.1----30.05-0.01 49.1-----
2024-04-18 10:50 pm- 0.0 1.9----30.05- 49.6-----
2024-04-18 10:40 pm S 1.9 2.9----30.05- 50.4-----
2024-04-18 10:30 pm S 2.9 2.9----30.05- 49.3-----
2024-04-18 10:20 pm SE 1.9 2.9----30.04- 49.1-----
2024-04-18 10:10 pmESE 1.9 2.9----30.04- 49.6-----
2024-04-18 10:00 pm SE 1.9 1.9----30.04-0.02 49.6-----
2024-04-18 09:50 pm- 0.0 1.9----30.05- 50.2-----
2024-04-18 09:40 pm- 0.0 1.9----30.04- 50.2-----
2024-04-18 09:30 pm E 1.9 2.9----30.02- 49.8-----
2024-04-18 09:20 pm SE 2.9 2.9----30.03- 49.8-----
2024-04-18 09:10 pm SE 1.9 2.9----30.03- 49.1-----
2024-04-18 09:00 pmESE 1.9 4.1----30.03-0.02 49.5-----
2024-04-18 08:50 pmESE 4.1 4.1----30.04- 51.6-----
2024-04-18 08:40 pmESE 1.9 2.9----30.04- 51.1-----
2024-04-18 08:30 pm SE 1.9 2.9----30.05- 50.7-----
2024-04-18 08:20 pm SE 2.9 2.9----30.05- 51.3-----
2024-04-18 08:10 pm S 2.9 5.1----30.06- 52.0-----
2024-04-18 08:00 pmSSW 2.9 4.1----30.06+0.01 52.3-----
2024-04-18 07:50 pm SW 1.9 4.1----30.05- 52.0-----
2024-04-18 07:40 pmWSW 4.1 5.1----30.06- 51.4-----
2024-04-18 07:30 pm W 5.1 7.0----30.05- 50.9-----
2024-04-18 07:20 pm W 6.0 7.0----30.05- 50.5-----
2024-04-18 07:10 pm W 6.0 8.9----30.05- 50.5-----
2024-04-18 07:00 pm W 7.0 8.9----30.06+0.03 50.5-----
2024-04-18 06:50 pm W 8.0 11.1----30.06- 49.1-----
2024-04-18 06:40 pm W 6.0 7.0----30.06- 48.9-----
2024-04-18 06:30 pm W 5.1 8.0----30.05- 49.5-----
2024-04-18 06:20 pm W 7.0 7.0----30.05- 48.9-----
2024-04-18 06:10 pm W 6.0 7.0----30.05- 48.7-----
2024-04-18 06:00 pm W 7.0 8.0----30.05+0.02 47.8-----
2024-04-18 05:50 pm W 7.0 8.0----30.06- 47.8-----
2024-04-18 05:40 pm W 7.0 8.9----30.06- 47.8-----
2024-04-18 05:30 pm W 8.0 8.9----30.05- 48.0-----
2024-04-18 05:20 pm W 8.0 11.1----30.05- 49.3-----
2024-04-18 05:10 pm W 11.1 15.9----30.05- 51.3-----
2024-04-18 05:00 pm W 11.1 14.0----30.05+0.03 52.7-----
2024-04-18 04:50 pm W 11.1 14.0----30.04- 53.4-----
2024-04-18 04:40 pm W 11.1 15.0----30.04- 53.6-----
2024-04-18 04:30 pm W 12.0 15.0----30.04- 53.4-----
2024-04-18 04:20 pm W 12.0 15.9----30.04- 53.4-----
2024-04-18 04:10 pm W 8.9 14.0----30.03- 50.2-----
2024-04-18 04:00 pm W 8.9 15.9----30.03+0.03 52.5-----
2024-04-18 03:50 pm W 9.9 14.0----30.03- 53.2-----
2024-04-18 03:40 pm W 11.1 13.0----30.03- 53.4-----
2024-04-18 03:30 pm W 11.1 14.0----30.03- 52.9-----
2024-04-18 03:20 pm W 8.9 13.0----30.03- 52.3-----
2024-04-18 03:10 pm W 9.9 14.0----30.03- 51.4-----
2024-04-18 03:00 pm W 13.0 15.0----30.03+0.02 52.3-----
2024-04-18 02:50 pm W 9.9 13.0----30.02- 52.7-----